Location: Shenandoah County Park
(38.9356°N, 78.4524°W)
Time: 10:00:06
(UTC-04:00)

Vanguard 1 Rocket - Pass Details

Date: 09 February 2023
Orbit: 652 x 4223 km, 34.3° (Epoch: 24 March)

Event Time Altitude Azimuth Distance (km) Brightness Sun altitude
Rises 17:26:25 0° 281° (W) 6,140 12.8 2.4°
Reaches altitude 10° 17:30:17 10° 273° (W) 5,555 12.8 1.7°
Maximum altitude 17:46:22 38° 214° (SW) 4,930 11.8 -1.2°
Drops below altitude 10° 18:08:25 10° 157° (SSE) 7,397 11.9 -5.3°
Sets 18:14:53 0° 150° (SSE) 8,291 12.1 -6.6°
